Notices

What's New in latest Release from April 7th, 2021:

- Updated Glossary, including Speed of Maximum Gust, and Total Hourly Precipitation

- Updated national and regional climate services offices contacts and prices information

- Addition of station inventory lists for 1981-2010, 1971-2000, and 1961-1990 Normals.

If you haven't already, please take our survey and provide feedback about our website: https://eccc.sondage-survey.ca/f/LanguageSelection.aspx?s=442ca660-fcf1-47c0-95a9-59707d6fd709

Hourly Data Report for June 08, 2006

TORONTO CITY
ONTARIO

43°40'00.000" N
79°24'00.000" W
112.50 m
6158355
71508
XTO

Download Data

Hourly Data (June 2006)
Hourly Data Report for June 8, 2006
TIME
LST
Temp Definition
°C
Dew Point Definition
°C
Rel Hum Definition
%
Precip. Amount Definition
mm

Wind Dir Definition
10's deg

Wind Spd Definition
km/h
Visibility Definition
km
Stn Press Definition
kPa
Hmdx Definition


Wind Chill Definition


Weather Definition


00:00 20.6 12.1 58   LegendMM LegendMM   99.65     LegendNANA
01:00 20.2 12.2 60   LegendMM LegendMM   99.64     LegendNANA
02:00 19.8 12.3 62   LegendMM LegendMM   99.62     LegendNANA
03:00 19.5 12.2 63   LegendMM LegendMM   99.61     LegendNANA
04:00 17.6 12.4 72   LegendMM LegendMM   99.59     LegendNANA
05:00 18.2 12.3 68   LegendMM LegendMM   99.60     LegendNANA
06:00 18.9 12.6 67   LegendMM LegendMM   99.64     LegendNANA
07:00 20.2 13.2 64   LegendMM LegendMM   99.67     LegendNANA
08:00 21.0 12.7 59   LegendMM LegendMM   99.72     LegendNANA
09:00 20.0 13.3 65   LegendMM LegendMM   99.76     LegendNANA
10:00 20.4 13.5 65   LegendMM LegendMM   99.75     LegendNANA
11:00 21.2 13.2 60   LegendMM LegendMM   99.76     LegendNANA
12:00 21.5 12.0 55   LegendMM LegendMM   99.76     LegendNANA
13:00 21.5 11.6 53   LegendMM LegendMM   99.71     LegendNANA
14:00 22.3 12.0 52   LegendMM LegendMM   99.62 25   LegendNANA
15:00 21.5 13.9 62   LegendMM LegendMM   99.60 25   LegendNANA
16:00 22.1 12.6 55   LegendMM LegendMM   99.60 25   LegendNANA
17:00 21.7 12.0 54   LegendMM LegendMM   99.60     LegendNANA
18:00 20.6 11.7 57   LegendMM LegendMM   99.60     LegendNANA
19:00 20.8 11.6 56   LegendMM LegendMM   99.63     LegendNANA
20:00 19.9 11.0 56   LegendMM LegendMM   99.60     LegendNANA
21:00 19.2 12.9 67   LegendMM LegendMM   99.63     LegendNANA
22:00 18.4 14.5 78   LegendMM LegendMM   99.61     LegendNANA
23:00 17.9 14.5 81   LegendMM LegendMM   99.64     LegendNANA

Notes on Data Quality.

Legend

  • E = Estimated
  • M = Missing
  • NA = Not Available*
  • [empty] = Indicates an unobserved value
Date modified: